Regional Weather Roundup
Issued by NWS

Home | Current Version | Previous Version | Text Only | Print | Product List | Glossary On
Versions: 1 2 3 4 5 6 7 8 9 10 11 12 13 14 15 16 17 18 19 20 21 22 23 24 25 26 27 28 29 30 31 32 33 34 35 36 37 38 39 40 41 42 43 44 45 46 47 48 49 50
000
ASUS44 KFWD 180615
RWRTX
NORTH TEXAS HOURLY WEATHER ROUNDUP
NATIONAL WEATHER SERVICE FORT WORTH TX
100 AM CDT FRI AUG 18 2017

NOTE: "FAIR" INDICATES FEW OR NO CLOUDS BELOW 12,000 FEET WITH NO
SIGNIFICANT WEATHER AND/OR OBSTRUCTIONS TO VISIBILITY.

TXZ118-119-180700-
DALLAS/FORT WORTH METROPLEX

CITY           SKY/WX    TMP DP  RH WIND       PRES   REMARKS
DFW AIRPORT    CLOUDY    77  71  82 CALM      29.98S
6HR MIN TEMP:  76; 6HR MAX TEMP:  86;

DALLAS LOVE    CLOUDY    79  70  74 CALM      29.99S
6HR MIN TEMP:  79; 6HR MAX TEMP:  87; 6HR PCP: TRACE;

FTW MEACHAM    CLOUDY    75  71  87 CALM      29.99F
6HR MIN TEMP:  75; 6HR MAX TEMP:  79;

DAL-EXECUTIVE  CLOUDY    76  72  87 E3        30.00R
6HR MIN TEMP:  75; 6HR MAX TEMP:  81;

FTW-ALLIANCE   CLOUDY    73  70  90 CALM      29.99F
6HR MIN TEMP:  72; 6HR MAX TEMP:  78;

FTW-NAS-JRB    CLOUDY    77  68  73 SE5       30.00
6HR MIN TEMP:  75; 6HR MAX TEMP:  79;

FTW-SPINKS     PTCLDY    75  69  81 N3        30.01F
6HR MIN TEMP:  74; 6HR MAX TEMP:  77; 6HR PCP:  0.01;

ARLINGTON      CLOUDY    75  73  93 CALM      30.00S
6HR MIN TEMP:  74; 6HR MAX TEMP:  79; 6HR PCP: TRACE;

GRAND PRAIRIE  CLOUDY    76  69  80 CALM      30.01S
6HR MIN TEMP:  75; 6HR MAX TEMP:  82;

ADDISON        CLOUDY    78  69  74 CALM      30.02R
6HR MIN TEMP:  77; 6HR MAX TEMP:  86;

MESQUITE         N/A     76  72  88 CALM      29.99F
6HR MIN TEMP:  75; 6HR MAX TEMP:  84;

LANCASTER      CLOUDY    75  72  88 CALM      30.01S
6HR MIN TEMP:  75; 6HR MAX TEMP:  86;

$$

TXZ091>094-102>105-117-120-121-131>134-180700-
NORTH CENTRAL TEXAS

CITY           SKY/WX    TMP DP  RH WIND       PRES   REMARKS
SHRMAN/DENISON PTCLDY    78  75  91 SE5       30.00F
6HR MIN TEMP:  78; 6HR MAX TEMP:  86;

GAINESVILLE    PTCLDY    73  70  89 CALM      30.02R
6HR MIN TEMP:  73; 6HR MAX TEMP:  87;

BOWIE          PTCLDY    73  70  91 CALM      30.00F
6HR MIN TEMP:  73; 6HR MAX TEMP:  89;

BRIDGEPORT     MOCLDY    73  68  86 SE3       30.02S
6HR MIN TEMP:  72; 6HR MAX TEMP:  82;

DECATUR        MOCLDY    74  69  84 SE3       30.01S
6HR MIN TEMP:  74; 6HR MAX TEMP:  84;

DENTON         CLOUDY    73  72  96 SW5       30.00R
6HR MIN TEMP:  73; 6HR MAX TEMP:  84;

BONHAM         PTCLDY    77  75  94 SE5       30.00S
GREENVILLE     CLOUDY    81  79  94 CALM      30.00S
ROCKWALL       CLOUDY    76  73  89 S7        30.00S
6HR MIN TEMP:  76; 6HR MAX TEMP:  83;

TERRELL        CLOUDY    78  72  81 NE3       30.00S
6HR MIN TEMP:  77; 6HR MAX TEMP:  86;

WAXAHACHIE     CLOUDY    74  72  93 CALM      30.02F
6HR MIN TEMP:  74; 6HR MAX TEMP:  82;

CLEBURNE       MOCLDY    75  72  88 CALM      30.02S
GRANBURY       MOCLDY    73  69  89 SW5       30.00F
6HR MIN TEMP:  73; 6HR MAX TEMP:  77;

$$

TXZ083>090-098>101-113>116-127>130-139>142-154-155-180700-
WESTERN NORTH TEXAS

CITY           SKY/WX    TMP DP  RH WIND       PRES   REMARKS
WICHITA FALLS  CLEAR     73  68  84 S7        29.99F
6HR MIN TEMP:  73; 6HR MAX TEMP:  89;

WF-KICKAPOO    PTCLDY    77  69  76 CALM      30.02S
6HR MIN TEMP:  76; 6HR MAX TEMP:  91;

VERNON         CLEAR     75  66  72 CALM      30.02S
6HR MIN TEMP:  75; 6HR MAX TEMP:  92;

ABILENE        CLOUDY    71  68  90 S5        30.04F
6HR MIN TEMP:  71; 6HR MAX TEMP:  76;

ABILENE-DYESS  CLEAR     74  67  78 S7        30.03F
6HR MIN TEMP:  73; 6HR MAX TEMP:  78;

GRAHAM         PTCLDY    72  72 100 CALM      29.98F
6HR MIN TEMP:  72; 6HR MAX TEMP:  84;

BRECKENRIDGE   CLOUDY    73  68  84 CALM      30.01F
6HR MIN TEMP:  73; 6HR MAX TEMP:  82;

CISCO          MOCLDY    72  68  88 SE3       30.05S
EASTLAND       PTCLDY    71  69  91 S3        30.03F
6HR MIN TEMP:  71; 6HR MAX TEMP:  78;

RANGER         PTCLDY    72  68  89 SW7       30.03F
6HR MIN TEMP:  71; 6HR MAX TEMP:  93;

MINERAL WELLS  PTCLDY    71  68  90 E5        29.99F
6HR MIN TEMP:  70; 6HR MAX TEMP:  77;

STEPHENVILLE   PTCLDY    72  68  88 CALM      30.04F
6HR MIN TEMP:  72; 6HR MAX TEMP:  74;

COMANCHE       MOCLDY    72  69  90 CALM      30.03F
6HR MIN TEMP:  72; 6HR MAX TEMP:  74; 6HR PCP:  0.01;

BROWNWOOD      CLOUDY    72  72 100 CALM      30.04S
COLEMAN        CLOUDY    73  69  88 CALM      30.06S
6HR MIN TEMP:  73; 6HR MAX TEMP:  77;

$$

TXZ143>147-156>162-174-175-180700-
CENTRAL TEXAS

CITY           SKY/WX    TMP DP  RH WIND       PRES   REMARKS
WACO           MOCLDY    76  70  82 SE3       30.01R
6HR MIN TEMP:  74; 6HR MAX TEMP:  80; 6HR PCP:  0.06;

WACO-MCGREGOR  MOCLDY    77  68  73 CALM      30.02R
6HR MIN TEMP:  75; 6HR MAX TEMP:  81;

HILLSBORO      CLOUDY    74  70  89 E9        30.01F
6HR MIN TEMP:  73; 6HR MAX TEMP:  80; 6HR PCP:  0.15;

CORSICANA      CLOUDY    79  74  84 CALM      30.01R
6HR MIN TEMP:  78; 6HR MAX TEMP:  88;

MEXIA          CLOUDY    75  72  92 S3        30.00R
6HR MIN TEMP:  75; 6HR MAX TEMP:  87;

HEARNE         CLEAR     79  73  79 CALM      30.01F
6HR MIN TEMP:  76; 6HR MAX TEMP:  95;

CAMERON        PTCLDY    79  71  76 S8        30.00F
6HR MIN TEMP:  78; 6HR MAX TEMP:  96;

TEMPLE         PTCLDY    78  70  76 S8        30.02R
6HR MIN TEMP:  77; 6HR MAX TEMP:  97;

KILLEEN        MOCLDY    76  70  82 SE3       30.02S
6HR MIN TEMP:  76; 6HR MAX TEMP:  92;

KILLEEN-SKYLRK MOCLDY    78  70  76 S6        30.03R
6HR MIN TEMP:  77; 6HR MAX TEMP:  95;

FORT HOOD      MOCLDY   N/A N/A N/A S6        30.00R
HAMILTON       MOCLDY    74  70  87 S5        30.04S
6HR MIN TEMP:  73; 6HR MAX TEMP:  75; 6HR PCP:  0.02;

LAMPASAS       PTCLDY    76  72  88 CALM      30.03F
6HR MIN TEMP:  76; 6HR MAX TEMP:  82;

$$

TXZ095>097-106>112-122>126-135>138-148>153-164>167-180700-
EAST TEXAS

CITY           SKY/WX    TMP DP  RH WIND       PRES   REMARKS
PARIS          PTCLDY    76  75  97 SE5       30.01F
6HR MIN TEMP:  76; 6HR MAX TEMP:  86;

SULPHUR SPRNGS CLOUDY    78  76  94 SE5       30.02F
6HR MIN TEMP:  77; 6HR MAX TEMP:  85;

MOUNT PLEASANT MOCLDY   N/A N/A N/A CALM      30.02F
GILMER         MOCLDY    76  75  96 CALM      30.01S
6HR MIN TEMP:  76; 6HR MAX TEMP:  83;

MINEOLA        PTCLDY    75  75 100 CALM      30.00F
TYLER          PTCLDY    79  78  97 CALM      30.00F
6HR MIN TEMP:  79; 6HR MAX TEMP:  86;

LONGVIEW       PTCLDY    79  77  94 SE5       29.99S
6HR MIN TEMP:  79; 6HR MAX TEMP:  88;

MARSHALL         N/A     75  72  89 CALM      30.03S
6HR MIN TEMP:  75; 6HR MAX TEMP:  85;

ATHENS         CLOUDY    77  77 100 CALM      29.98S
PALESTINE      PTCLDY    80  77  91 SE3       30.00F
JACKSONVILLE   PTCLDY    80  77  91 S5        30.03S
HENDERSON      CLEAR     78  76  93 CALM      30.02S
6HR MIN TEMP:  77; 6HR MAX TEMP:  87; 6HR PCP:  0.01;

CENTER         PTCLDY    81  80  95 CALM      30.02S HX  91
6HR MIN TEMP:  81; 6HR MAX TEMP:  89;

NACOGDOCHES    CLEAR     80  76  87 S5        30.01S
6HR MIN TEMP:  78; 6HR MAX TEMP:  88;

LUFKIN         CLEAR     80  75  84 S7        30.00F
6HR MIN TEMP:  80; 6HR MAX TEMP:  90;

$$

SUPPLEMENTAL OBSERVATIONS (NWS FORT WORTH AREA)

CITY           SKY/WX    TMP DP  RH WIND       PRES   REMARKS
DENISON DAM      N/A     79  75  89 E3          N/A
CADDO GRASSLND   N/A     77  73  88 S1          N/A



USA.gov is the U.S. government's official web portal to all federal, state and local government web resources and services.